Preview of NWS' New Version of Forecast
This preview is not operational and should not be used for support decisions.

Regional Weather Roundup (RWR)

Issued by National Weather Service (NWS)

                            
000
ASUS44 KMEG 222100
RWRTN 
TENNESSEE HOURLY STATE WEATHER ROUNDUP
NATIONAL WEATHER SERVICE MEMPHIS TN
400 PM CDT WED MAY 22 2019

TNZ002-004-019-021-049-052-054-088>092-222200-
WEST TENNESSEE
  
CITY           SKY/WX    TMP DP  RH WIND       PRES   REMARKS
MEMPHIS INTL   PTSUNNY   89  72  56 S18G28    29.95S HX  96           
NWS MEMPHIS      N/A     89 N/A N/A MISG        N/A                   
JACKSON        FAIR      86  72  62 S9        29.97S HX  92           
DYERSBURG      FAIR      85  74  69 SW7       29.95F HX  92           
$$

TNZ008-025-027-028-033-062-065-066-222200-
NORTH MIDDLE TENNESSEE
  
CITY           SKY/WX    TMP DP  RH WIND       PRES   REMARKS
NASHVILLE      FAIR      91  63  39 S16G24    30.02S HX  92           
CLARKSVILLE    FAIR      82  71  69 SW5       30.00S                  
SMYRNA         FAIR      89  67  47 SW10G16   30.03R HX  92           
CROSSVILLE     FAIR      83  53  35 VRB7G23   30.13F                  
$$

TNZ061-075-076-078-094-096-097-222200-
SOUTH MIDDLE TENNESSEE
  
CITY           SKY/WX    TMP DP  RH WIND       PRES   REMARKS
$$

TNZ017-018-042-046-047-222200-
NORTHEAST TENNESSEE
  
CITY           SKY/WX    TMP DP  RH WIND       PRES   REMARKS
TRI CITIES     FAIR      87  61  41 SW9       30.11F                  
$$

TNZ012-013-036-069-073-074-222200-
CENTRAL EAST TENNESSEE
  
CITY           SKY/WX    TMP DP  RH WIND       PRES   REMARKS
KNOXVILLE      FAIR      89  62  40 SW13      30.07S                  
OAK RIDGE      FAIR      91  60  35 SW9G22    30.09S HX  90           
$$

TNZ083-085-099-222200-
SOUTHEAST TENNESSEE
  
CITY           SKY/WX    TMP DP  RH WIND       PRES   REMARKS
CHATTANOOGA    FAIR      90  61  37 S13       30.08S HX  90           
$$

SKY/WX REPORTED AS FAIR MEANS FEW OR NO CLOUDS BELOW
12 THOUSAND FEET.